Lapse_Rate
3.5 3.6 3.3 3.1 3.0 2.8 2.8 2.6 2.4 1.6 1.3 1.3 1.2 1.2 1.5 0.9 0.7 4.6 4.8 6.2 4.6 2.3 2.1 7.1 8.2 9.1 9.2 8.5 8.7 8.5 6.5 6.5 6.5 6.5 6.5 7.1 6.6 7.7 8.2 7.6 7.9 8.2 8.1 8.6 9.1
3.5 3.9 3.6 3.6 3.2 3.0 2.6 2.7 2.4 1.9 1.6 0.8 1.0 1.1 1.4 1.0 3.9 4.9 5.5 2.1 1.4 2.0 8.4 8.9 8.5 8.8 8.2 8.0 8.1 7.0 6.5 6.5 6.5 6.5 6.5 6.9 7.0 7.3 7.1 7.1 7.3 7.8 8.5 8.8 9.0
3.6 3.9 3.9 3.6 3.2 3.3 2.8 2.7 2.4 2.2 2.0 1.4 0.8 0.9 1.1 2.0 6.8 8.4 3.1 2.2 1.9 3.1 9.6 9.3 9.0 8.5 7.5 7.9 7.6 7.0 6.5 6.5 6.8 7.3 7.4 7.0 7.0 7.7 7.0 6.5 7.4 7.3 7.9 8.5 8.7
3.9 3.4 3.7 4.0 3.8 3.7 3.1 2.7 2.6 2.4 2.2 2.1 1.9 1.8 1.7 5.8 6.5 8.3 3.3 2.8 2.6 6.2 9.1 8.9 8.5 7.6 6.7 6.5 7.7 6.5 7.0 7.1 7.2 7.5 7.4 6.5 7.6 7.0 7.3 7.3 8.2 8.4 8.6 8.6 8.5
3.1 3.4 3.3 3.9 3.8 4.8 3.5 3.0 3.0 2.7 2.6 2.8 2.3 2.7 5.4 8.0 8.1 8.5 3.8 3.7 5.6 6.9 8.8 8.5 7.9 7.6 6.5 6.7 7.0 6.5 6.5 7.3 7.6 7.6 7.6 7.6 7.0 6.9 7.2 8.2 8.6 8.5 8.4 8.4 8.4
2.8 2.4 2.9 3.5 3.9 4.8 4.2 3.2 2.9 2.8 2.6 3.2 2.9 4.1 6.9 6.8 9.3 7.5 7.7 7.3 8.6 8.4 8.9 8.9 8.1 8.3 7.3 6.9 6.6 7.0 7.0 7.0 7.3 7.3 7.5 6.8 6.8 7.3 7.4 8.2 8.0 8.1 8.2 8.3 8.4
2.2 2.3 2.3 3.4 3.6 5.1 4.3 3.5 3.0 2.8 2.3 3.8 5.4 6.3 8.5 7.9 8.1 7.7 6.1 7.4 9.6 9.4 8.7 9.1 9.1 8.1 7.8 6.5 7.8 7.3 6.5 6.5 6.7 7.1 6.6 7.4 6.5 6.5 7.8 8.1 7.7 7.9 8.1 8.3 8.4
2.1 2.0 1.5 3.3 4.8 5.3 4.4 3.4 3.2 2.9 2.3 3.9 5.3 7.5 7.8 7.4 6.7 6.0 7.1 8.6 8.0 9.5 9.3 9.4 9.3 8.4 7.7 7.9 7.1 6.5 6.5 6.5 6.5 6.4 6.9 6.9 6.5 6.5 7.6 7.6 7.4 7.6 7.9 8.0 8.3
2.5 1.9 1.1 2.6 5.6 4.8 3.6 3.2 3.2 3.3 3.3 4.5 5.2 7.0 7.3 7.0 6.0 7.2 7.8 8.6 9.2 9.3 9.4 9.4 8.9 7.9 7.6 6.5 6.5 6.5 6.5 6.5 6.5 6.6 6.5 6.5 6.5 6.5 7.6 7.4 7.2 7.6 7.8 7.9 8.1
2.0 2.2 2.5 3.6 5.4 4.2 3.3 3.3 3.2 3.7 5.3 7.0 9.0 7.1 7.6 7.9 8.9 8.0 7.8 8.5 8.6 8.6 8.1 8.1 7.5 6.5 6.5 6.5 6.5 6.5 6.5 6.5 6.5 6.5 6.5 6.5 6.5 6.5 7.4 7.3 7.1 7.5 7.6 7.9 8.0
2.7 3.4 5.1 5.6 4.3 2.6 3.2 3.1 5.4 5.6 7.8 7.5 7.7 7.6 8.1 9.0 8.6 8.8 8.3 8.0 8.7 7.8 6.5 7.0 6.5 6.5 6.5 6.5 6.5 6.5 6.5 6.5 6.5 6.5 6.5 6.5 6.5 6.5 6.9 7.1 7.0 7.3 7.5 7.7 7.8
5.1 5.4 5.7 4.8 3.3 3.1 4.7 4.9 7.8 7.8 7.0 8.4 8.0 8.5 8.8 8.9 7.5 8.3 8.9 7.6 7.1 6.5 6.5 6.5 6.5 6.5 6.5 6.5 6.5 6.5 6.5 6.5 6.5 6.5 6.5 6.5 6.5 6.5 6.5 6.6 7.0 7.2 7.4 7.6 7.9
5.6 5.5 5.6 3.5 3.1 3.4 5.0 6.0 6.5 7.3 6.6 7.5 8.3 8.0 8.3 8.7 7.5 7.8 8.6 7.8 6.5 6.5 6.5 6.5 6.5 6.5 6.5 6.5 6.5 6.5 6.5 6.5 6.5 6.5 6.5 6.5 6.5 6.5 6.5 6.9 7.2 7.5 7.7 7.9 7.9
5.2 5.4 3.9 2.7 3.6 3.5 4.3 4.3 6.0 6.3 6.5 6.5 6.8 7.6 8.2 8.3 6.8 8.8 8.9 7.7 6.6 6.5 6.5 6.5 6.5 6.5 6.5 6.5 6.5 6.5 6.5 6.5 6.5 6.5 6.5 6.5 6.5 6.5 6.5 6.5 6.5 7.1 7.5 7.7 8.0
4.7 3.9 2.8 4.9 3.1 5.1 5.3 5.1 5.8 5.8 6.5 6.5 6.8 8.9 8.3 7.3 7.3 7.4 9.0 7.6 6.5 6.5 6.5 6.5 6.5 6.5 6.5 6.5 6.5 6.5 6.5 6.5 6.5 6.5 6.5 6.5 6.5 6.5 6.5 6.5 6.5 6.4 7.3 7.7 8.1
3.1 2.6 2.3 2.6 3.5 3.4 5.0 6.8 6.3 6.5 6.5 6.5 6.8 6.5 6.5 7.0 6.9 7.5 7.7 8.0 7.4 6.5 6.5 6.5 6.9 6.5 6.5 6.5 6.5 6.5 6.5 6.5 6.5 6.5 6.5 6.5 6.5 6.5 6.5 6.5 6.5 6.7 7.3 7.7 8.1
2.1 2.9 3.5 4.1 4.1 4.8 5.7 6.6 6.5 6.5 6.5 6.5 6.5 6.5 6.5 6.5 6.5 6.5 6.5 6.5 6.5 6.5 6.5 6.5 6.5 6.5 6.6 6.5 6.5 6.5 6.5 6.5 6.5 6.5 6.5 6.5 6.5 6.5 6.5 6.5 6.5 6.5 7.2 7.8 8.2
5.3 5.0 5.0 4.6 4.3 5.3 6.6 6.6 6.5 6.5 6.5 6.5 6.5 6.5 6.5 6.5 6.5 6.5 6.5 6.5 6.5 6.5 6.5 6.5 6.5 6.5 6.5 6.5 6.5 6.5 6.5 6.5 6.5 6.5 6.5 6.5 6.5 6.5 6.5 6.9 7.3 7.4 7.6 7.9 8.1
4.6 4.2 4.8 5.2 5.4 6.5 7.2 6.5 6.5 6.5 6.5 6.5 6.5 6.5 6.5 6.5 6.5 6.5 6.5 6.5 6.5 6.5 6.5 6.5 6.5 6.5 6.5 6.5 6.5 6.5 6.5 6.5 6.5 6.5 6.5 6.5 6.5 6.5 6.5 6.5 6.6 7.0 7.4 7.6 8.0
7.8 8.5 6.6 6.1 6.1 6.9 6.7 6.5 6.5 6.5 6.5 6.5 6.5 6.5 6.5 6.5 6.5 6.5 6.5 6.5 6.5 6.5 6.5 6.5 6.5 6.5 6.5 6.6 6.5 6.5 6.5 6.5 6.5 6.5 6.5 6.5 6.5 6.5 6.5 6.5 6.5 6.5 7.0 7.5 8.1
9.0 8.0 7.2 5.8 6.4 6.8 6.5 6.5 6.5 7.0 6.9 6.5 6.5 6.5 6.5 6.5 6.5 6.5 6.5 6.5 6.5 6.5 6.5 6.5 6.5 6.5 6.5 6.5 6.5 6.5 6.5 6.5 6.5 6.5 6.5 6.5 6.5 6.5 6.5 6.5 6.5 6.4 7.3 7.7 8.0
8.5 6.5 7.3 6.4 6.6 6.9 6.5 6.5 6.7 6.5 7.1 6.5 6.5 6.5 6.5 6.5 6.5 6.5 6.5 6.5 6.9 6.6 6.5 6.5 6.5 6.5 6.5 6.5 6.5 6.5 6.5 6.5 6.5 6.5 6.5 6.5 6.5 6.5 6.5 6.5 6.8 6.9 7.5 7.9 8.2
7.5 7.4 6.4 6.7 6.5 6.5 6.5 6.5 6.6 6.5 6.5 6.5 6.5 6.5 6.5 6.5 6.5 6.5 6.5 6.7 6.9 6.5 6.5 6.5 6.5 6.5 6.5 6.5 6.5 6.5 6.5 6.5 6.5 6.5 6.5 6.5 6.5 6.5 6.5 6.5 7.0 7.0 7.5 7.8 8.0
8.0 6.5 7.3 6.9 7.1 6.5 6.5 6.5 6.5 7.0 6.5 6.6 6.5 6.6 6.5 6.5 6.5 6.5 6.5 6.5 6.9 6.7 6.8 6.7 6.5 6.5 6.5 6.5 6.5 6.5 6.5 6.5 6.5 6.5 6.5 6.5 6.5 6.5 6.5 6.5 6.6 7.0 7.5 7.7 7.9
8.1 6.7 7.4 6.5 6.6 6.5 6.5 6.5 6.5 6.5 6.7 6.9 6.5 6.5 6.5 6.5 6.5 6.5 6.5 6.5 6.6 6.8 6.5 6.5 6.5 6.5 6.5 6.5 6.5 6.5 6.5 6.5 6.5 6.5 6.5 6.5 6.5 6.5 6.5 6.5 6.8 7.3 7.6 7.6 7.7
7.3 7.0 7.7 6.8 7.0 6.5 6.5 6.5 6.5 6.5 6.5 6.5 6.5 6.5 6.5 6.5 6.5 6.5 6.5 6.5 6.5 6.5 6.5 6.5 6.5 6.5 6.5 6.5 6.5 6.5 6.5 6.5 6.5 6.5 6.5 6.5 6.5 6.5 7.1 7.2 6.9 7.1 7.4 7.4 7.7
8.7 8.3 7.8 6.8 6.5 6.5 6.5 6.5 6.5 6.5 6.7 6.8 6.6 6.5 6.5 6.5 6.9 7.1 7.2 7.0 6.6 6.5 6.5 6.5 6.5 6.5 6.5 6.5 6.5 6.5 6.5 6.5 6.5 6.5 6.5 6.5 6.5 6.5 6.5 6.5 6.9 7.2 7.4 7.4 7.7
Wind_Speed
20 19 19 16 16 14 12 8 7 5 7 9 12 13 18 20 22 12 13 0 3 8 10 10 8 8 9 8 8 5 8 13 20 12 11 3 10 4 3 8 7 7 9 11 15
21 21 20 19 17 16 14 11 8 5 6 7 11 14 16 18 15 14 4 3 5 14 12 13 12 12 8 10 7 12 12 15 12 11 11 10 11 11 9 12 12 14 12 8 9
23 24 23 22 20 18 15 13 9 7 6 6 9 12 15 18 9 1 6 8 9 12 9 7 7 10 11 8 12 10 18 16 9 13 11 14 15 13 15 16 16 14 13 11 10
25 26 25 24 22 19 17 15 11 8 4 4 8 11 15 5 9 4 2 12 13 9 10 10 10 10 10 14 15 12 16 15 14 12 15 16 16 17 15 18 15 14 14 12 11
23 26 26 26 23 19 18 15 11 6 2 4 5 9 6 7 10 3 6 9 13 10 11 12 12 12 13 9 12 18 16 14 15 14 16 16 19 19 18 16 14 12 9 12 8
24 26 27 26 24 20 18 16 11 7 3 3 2 6 6 14 5 5 7 9 11 13 13 14 9 12 12 13 16 2 12 12 10 14 16 16 17 15 12 13 10 9 9 6 6
27 26 26 26 25 22 22 19 15 9 6 2 5 5 12 18 6 7 4 13 14 16 18 16 17 14 7 13 18 13 16 16 17 17 15 12 19 20 17 13 10 9 8 5 4
29 25 25 27 25 23 23 20 16 11 6 4 6 3 10 7 14 18 18 15 12 14 16 10 14 17 13 8 7 11 14 14 5 14 13 11 13 4 4 8 11 8 6 5 5
27 23 23 24 25 25 26 21 15 8 5 5 3 4 12 5 9 13 18 14 18 10 12 6 11 16 13 16 15 16 15 16 10 11 6 14 9 7 7 7 11 11 10 5 4
26 24 24 23 26 28 27 17 9 3 5 4 4 4 8 11 5 4 4 16 12 14 11 13 8 12 16 16 19 19 19 16 14 8 12 12 13 10 17 13 11 11 7 5 3
24 24 22 26 31 33 21 8 4 3 7 12 9 9 5 4 5 10 6 12 15 14 21 17 12 24 24 22 21 10 15 14 8 8 6 15 17 16 15 13 13 10 7 3 2
22 22 20 29 37 37 15 6 5 3 7 19 23 24 21 4 7 12 14 11 13 19 19 14 25 25 18 18 20 22 19 19 15 16 11 14 16 13 15 15 8 8 8 4 2
19 18 23 35 34 14 11 7 8 4 1 13 19 18 21 18 21 22 20 13 15 16 18 20 19 10 21 18 19 21 21 16 15 5 12 13 18 14 6 7 8 7 5 3 4
15 19 32 35 13 9 6 6 7 1 4 8 7 7 10 9 11 25 21 15 10 21 17 11 19 19 15 23 22 22 16 15 12 9 10 6 4 12 8 11 10 8 5 3 5
18 35 40 21 14 7 9 13 4 3 6 2 6 3 8 14 8 11 26 17 20 13 14 16 21 24 19 16 16 19 7 14 15 13 13 15 7 6 13 10 12 9 5 4 7
33 32 26 7 4 6 15 9 1 5 9 6 6 9 11 17 9 3 17 11 3 1 6 14 2 5 15 17 16 9 6 10 10 11 13 16 12 10 13 11 11 8 5 6 9
24 18 8 2 7 15 15 4 2 6 3 7 5 8 13 8 8 9 17 13 9 6 10 13 19 18 13 15 14 21 12 6 8 8 12 2 10 4 10 6 5 6 5 8 10
19 10 8 6 19 19 4 2 9 1 7 1 3 6 8 7 9 14 18 16 18 14 6 9 7 19 9 15 10 22 19 9 10 11 10 6 8 6 10 12 10 7 6 8 11
14 3 3 6 13 6 5 4 2 6 2 4 7 8 11 9 6 15 17 18 15 9 8 13 8 4 4 5 6 15 19 17 9 5 6 8 7 8 9 8 6 5 6 8 11
6 6 4 7 7 5 3 4 7 4 2 4 9 2 6 10 8 11 12 3 7 1 7 1 5 4 5 5 4 6 8 7 8 12 15 12 10 3 8 5 5 6 6 7 10
5 5 5 10 2 1 5 5 5 4 2 3 4 4 2 4 6 3 7 5 1 3 5 7 6 5 3 2 2 4 6 4 4 5 7 11 2 4 8 5 5 8 8 10 11
4 4 7 5 3 2 8 5 1 4 5 3 2 3 4 4 5 6 5 3 3 4 6 5 2 4 2 3 2 3 2 3 5 8 4 6 6 4 5 5 7 7 8 8 10
4 3 2 2 6 8 6 7 8 6 8 6 4 3 1 6 2 10 4 3 1 5 5 2 2 3 2 1 1 2 1 2 2 1 9 9 3 5 3 2 2 6 7 7 8
4 5 3 3 1 5 10 11 10 9 6 4 4 3 3 5 2 10 10 4 4 4 6 1 3 5 5 3 4 4 7 4 2 3 4 9 13 4 8 15 15 1 4 5 8
4 4 7 8 10 10 9 10 14 8 6 7 6 5 4 5 4 6 6 10 5 0 3 1 3 2 4 4 2 2 6 7 10 10 6 9 11 14 16 18 9 2 4 5 8
4 4 5 3 12 14 9 9 13 9 8 9 4 6 10 4 3 8 10 7 5 3 3 2 3 1 2 3 4 8 9 10 11 12 14 15 16 11 17 5 2 2 5 6 8
2 1 3 9 13 11 12 9 13 10 2 4 6 6 9 8 9 9 8 6 6 6 4 3 4 3 2 2 1 7 5 10 9 7 7 11 12 17 15 3 4 5 7 7 9
Wind_Direction
243 243 243 238 236 232 239 243 247 270 292 308 321 326 322 324 312 291 269 204 161 153 195 151 170 175 193 202 220 243 246 248 247 253 260 215 251 158 332 260 258 258 275 299 308
246 242 240 239 233 229 225 226 230 247 276 303 320 326 324 321 303 276 249 154 212 169 181 184 177 176 198 216 203 218 238 259 276 268 258 261 245 274 269 263 261 275 272 280 289
251 244 238 235 230 223 217 216 215 229 263 300 321 327 321 316 292 341 137 182 180 191 194 197 186 196 221 217 207 215 243 268 245 259 264 266 266 266 263 270 266 279 286 293 296
262 245 239 235 229 219 206 204 206 220 245 300 327 330 317 277 292 55 36 171 181 196 185 181 190 201 233 217 222 247 236 259 250 257 254 257 268 267 269 268 277 274 280 288 282
273 254 241 238 226 217 198 194 198 202 223 302 343 329 304 238 245 34 121 162 178 194 206 200 210 225 234 233 233 240 254 250 249 247 250 266 262 264 266 269 273 269 271 277 287
270 267 252 237 227 210 191 177 179 182 156 300 358 306 266 255 276 250 217 198 217 212 219 226 233 237 276 240 233 280 249 251 247 239 244 252 255 244 248 259 256 246 256 256 280
269 269 260 235 225 200 179 171 164 159 121 321 311 280 257 256 257 205 206 226 239 238 244 239 245 228 238 246 232 256 253 244 243 245 239 248 256 246 252 262 254 221 245 262 291
268 263 242 246 216 191 168 160 156 157 133 261 294 246 260 244 260 247 244 233 240 245 246 246 222 237 243 254 224 233 240 249 194 224 226 215 260 196 222 221 228 258 251 268 304
271 251 234 234 202 173 155 155 151 156 192 232 239 198 266 124 229 245 231 231 222 225 231 256 206 214 211 237 242 221 251 222 230 206 190 211 255 256 186 211 254 262 266 296 297
267 236 220 222 184 156 142 136 122 150 208 224 239 226 239 239 195 222 215 213 217 204 213 223 217 218 220 218 231 237 230 248 235 179 226 223 241 248 272 262 250 260 276 256 276
249 220 216 195 155 138 120 109 131 223 220 209 205 240 275 278 244 219 178 173 202 194 208 203 213 223 225 225 239 285 267 248 205 221 262 253 257 254 249 251 241 246 197 194 337
231 211 207 171 153 154 152 192 186 12 263 228 252 251 261 280 269 223 167 176 191 213 218 210 231 240 232 240 238 247 249 254 264 259 244 259 254 242 248 248 245 180 163 136 333
212 204 170 147 144 148 181 168 111 136 300 272 232 247 242 222 243 234 199 194 193 206 213 217 248 236 250 237 231 237 245 252 254 212 234 263 261 237 201 166 155 140 123 129 30
196 164 142 130 125 143 146 143 120 347 240 259 203 246 203 202 258 226 211 199 197 213 198 233 247 290 271 239 228 237 221 244 250 249 253 194 262 174 177 171 182 161 162 77 28
153 141 139 145 129 174 151 154 158 242 276 166 165 99 165 186 334 196 204 210 215 199 181 206 200 195 234 234 223 247 230 233 241 250 261 238 251 173 177 181 175 164 121 70 21
116 124 120 88 66 113 131 132 149 171 230 193 166 177 178 216 240 25 186 217 165 191 259 238 269 182 216 236 252 260 238 235 239 240 244 245 227 172 188 188 146 137 100 30 9
103 106 80 90 127 136 121 116 145 231 153 182 212 196 213 208 223 209 180 177 173 184 207 214 220 218 208 213 204 215 216 211 226 218 242 181 226 208 134 120 103 110 57 20 6
96 75 43 110 137 142 125 101 222 282 218 13 290 245 226 209 228 206 185 193 220 235 222 210 211 212 187 231 202 197 203 218 214 227 231 147 230 114 94 89 91 75 35 10 2
97 61 91 137 136 168 157 197 215 200 256 273 285 286 216 211 237 202 199 207 198 218 226 195 203 167 187 209 229 193 217 241 279 270 272 203 149 113 113 109 102 62 20 10 5
123 115 122 161 149 174 219 202 186 200 291 257 226 263 258 205 201 188 177 142 175 237 290 56 139 190 143 192 113 256 169 202 219 245 241 239 241 185 141 114 71 44 22 15 7
144 128 127 147 196 170 218 193 178 224 281 297 201 166 240 293 244 144 182 126 90 98 68 31 269 151 218 335 62 169 191 232 280 276 271 270 251 90 113 81 40 30 20 11 1
169 139 140 160 168 208 212 198 180 202 226 204 116 168 145 276 190 136 185 50 8 47 131 206 273 146 114 25 286 282 278 270 251 220 255 295 285 142 116 64 9 13 14 3 0
127 118 123 206 195 201 210 205 199 224 206 205 149 204 197 204 155 129 152 316 194 180 214 199 141 185 215 198 27 238 128 133 141 239 253 261 268 149 123 246 104 338 351 356 360
178 146 152 208 221 224 196 201 199 215 197 200 157 123 251 166 225 150 148 147 158 141 57 232 179 268 253 57 101 174 173 164 169 225 286 244 290 221 289 307 318 31 337 355 17
198 187 170 190 200 206 200 201 194 177 193 197 154 174 203 175 123 140 133 130 103 63 66 39 182 186 87 110 132 193 212 221 238 247 254 288 299 303 316 317 342 38 26 25 29
166 175 179 202 182 195 182 213 198 173 178 185 208 200 176 216 224 177 155 171 167 119 103 5 128 155 231 245 258 264 255 251 250 259 265 274 277 360 332 6 52 44 51 22 28
190 211 230 145 185 187 197 220 199 166 135 194 236 160 140 106 89 91 89 93 119 143 125 136 141 163 194 139 254 254 276 263 244 250 289 284 337 329 318 180 43 52 49 34 27